Regional Weather Roundup
Issued by NWS Boston, MA

Home | Current Version | Previous Version | Text Only | Print | Product List | Glossary On
Versions: 1 2 3 4 5 6 7 8 9 10 11 12 13 14 15 16 17 18 19 20 21 22 23 24 25 26 27 28 29 30 31 32 33 34 35 36 37 38 39 40 41 42 43 44 45 46 47 48 49 50
000
ASUS41 KBOX 291610
RWRBOX

REGIONAL WEATHER ROUNDUP
NATIONAL WEATHER SERVICE TAUNTON MA
1200 PM EDT FRI AUG 29 2014

NOTE:  "FAIR" INDICATES FEW OR NO CLOUDS BELOW 12,000 FEET WITH NO
SIGNIFICANT WEATHER AND/OR OBSTRUCTIONS TO VISIBILITY.  THE FOLLOWING
OBSERVATION LOCATIONS DO NOT REPORT PRESENT WEATHER...PROVINCETOWN...
SMITHFIELD...BLOCK ISLAND...KEENE...AND OXFORD.

MAZALL-291700-
EASTERN MASSACHUSETTS

CITY           SKY/WX    TMP DP  RH WIND       PRES   REMARKS
BOSTON         MOSUNNY   69  55  60 E14       30.19R
BEVERLY        SUNNY     71  54  54 NE7       30.19R
LAWRENCE       MOSUNNY   72  53  51 VRB3      30.20R
BEDFORD        PTSUNNY   73  52  47 NE3       30.17S
BLUE HILL        N/A     70  52  52 E10       30.19R
NORWOOD        CLOUDY    71  52  50 NE8       30.18R
MARSHFIELD     MOSUNNY   68  55  64 NE8       30.21R
PLYMOUTH       MOSUNNY   69  54  58 NE10G17   30.19R
TAUNTON        MOSUNNY   71  52  50 VRB7      30.18R
NEW BEDFORD    MOSUNNY   74  54  49 MISG      30.17R
$$

MAZALL-291700-
CAPE COD AND THE ISLANDS

CITY           SKY/WX    TMP DP  RH WIND       PRES   REMARKS
FALMOUTH       PTSUNNY   70  55  60 NE13      30.18S
HYANNIS        MOSUNNY   70  55  59 N14       30.17R
CHATHAM        SUNNY     68  53  58 NE13      30.19R
PROVINCETOWN   SUNNY     68  54  60 NE12G20   30.19S
NANTUCKET      SUNNY     70  53  54 NE20      30.16R
MARTHAS VNYRD  PTSUNNY   70  54  56 N9        30.17R
$$

MAZALL-291700-
CENTRAL AND WESTERN MASSACHUSETTS

CITY           SKY/WX    TMP DP  RH WIND       PRES   REMARKS
WORCESTER      PTSUNNY   69  49  48 CALM      30.20S
FITCHBURG      MOSUNNY   74  50  42 CALM      30.19S
ORANGE         MOSUNNY   71  49  45 CALM      30.19F
SPRINGFIELD    MOSUNNY   71  54  55 VRB2      30.18F
WESTFIELD      SUNNY     72  52  49 CALM      30.18F
NORTH ADAMS    SUNNY     69  54  58 N6        30.19F
PITTSFIELD     MOSUNNY   67  51  56 CALM      30.19F
$$

RIZALL-291700-
RHODE ISLAND

CITY           SKY/WX    TMP DP  RH WIND       PRES   REMARKS
PROVIDENCE     PTSUNNY   73  50  44 CALM      30.19R
NEWPORT        MOSUNNY   74  52  46 VRB6      30.18S
BLOCK ISLAND   SUNNY     70  54  56 NE8       30.19S
SMITHFIELD     CLOUDY    73  50  43 NW6       30.19S
WESTERLY       MOSUNNY   73  52  47 SE10      30.19R
$$

CTZALL-291700-
CONNECTICUT

CITY           SKY/WX    TMP DP  RH WIND       PRES   REMARKS
BRADLEY INTL   MOSUNNY   74  51  44 N5        30.18F
HARTFORD       SUNNY     71  52  50 VRB3      30.18F
BRIDGEPORT     MOSUNNY   73  52  47 E10       30.18S
DANBURY        SUNNY     71  49  45 E5        30.21S
GROTON         MOSUNNY   70  55  59 S7        30.17S
NEW HAVEN      MOSUNNY   76  50  40 VRB6      30.18S
CHESTER        FAIR      70  50  49 CALM      30.20R
MERIDEN        MOSUNNY   75  48  38 VRB6      30.18F
WILLIMANTIC    PTSUNNY   72  49  44 MISG      30.18F
OXFORD         MOSUNNY   70  54  56 CALM      30.22R
$$

MEZ002-015-021-024-NHZ003-005-008-011-012-014-VTZ005-008-291700-
NORTHERN NEW ENGLAND

CITY           SKY/WX    TMP DP  RH WIND       PRES   REMARKS
PORTLAND ME    MOSUNNY   68  53  58 E10       30.19R
BANGOR ME      MOSUNNY   67  42  40 N9G17     30.18S
CONCORD NH     MOSUNNY   71  53  52 S5        30.18S
MANCHESTER NH  MOSUNNY   72  50  45 E8        30.17R
NASHUA NH      MOSUNNY   72  49  44 CALM      30.19R
PORTSMOUTH NH  MOSUNNY   68  56  67 E9        30.19R
JAFFREY NH     PTSUNNY   69  50  50 VRB3      30.20S
KEENE NH       SUNNY     72  48  43 W3        30.19F
BURLINGTON VT  PTSUNNY   67  54  63 NW6       30.22S
MT. WASHINGTON PTSUNNY   46  41  81 N2          N/A  VSB 3/4
$$

NYZ052-076-291700-
EASTERN NEW YORK

CITY           SKY/WX    TMP DP  RH WIND       PRES   REMARKS
ALBANY         MOSUNNY   71  54  54 N5        30.21F
NEW YORK CITY  MOSUNNY   74  49  41 NE10      30.19R
$$

ANZALL-291700-
MARINE OBSERVATIONS

STATION/POSITION TIME  TEMP    WIND        PRES    VSBY  WAVE
                       AIR SEA DIR/SP/G                  HT/PER
                 (UTC) (F)     (DEG/KT/KT) (MB)    (MI)  (FT/S)
BOSTON BUOY      1550   63 67   50/ 10/ 12 1022.7R         3/14
BUZZARDS BAY     1500           50/  7/  8 1022.7R
NANTUCKET SOUND  1550   66 71   40/ 14/ 16 1021.3R         2/ 3
MASS BAY-STELLWA 1504   63 64   50/ 12/ 14   N/A    1 7/8  1/ 4
ISLE OF SHOALS   1600   61      80/ 11/ 12 1022.1R
S OF BLOCK IS    1508      66                N/A           4/11
$$

......................KEY.........................
  SKY/WX - SKY CONDITION/PRESENT WEATHER
  TMP    - TEMPERATURE IN FAHRENHEIT
  DWPT   - DEWPOINT IN FAHRENHEIT
  RH     - RELATIVE HUMIDITY IN PERCENT
  WIND   - DIRECTION AND SPEED IN MPH
  PRES   - MEAN SEA LEVEL PRESSURE IN INCHES OF HG
  WCI    - WIND CHILL INDEX
  VSB    - VISIBILITY IN MILES
  HX     - HEAT INDEX
  TC     - TEMPERATURE IN CELSIUS
  VRB    - VARIABLE WIND DIRECTION
  N/A    - NOT AVAILABLE



USA.gov is the U.S. government's official web portal to all federal, state and local government web resources and services.